Flag for U.S.A. Weather past 2 weeks in Waterbury, Connecticut, U.S.A.

Now
64 °F

Passing clouds.


Feels Like: 64 °F
Forecast: 64 / 81 °F
Wind: 3 mph from Southwest

Location: Oxford

Current Time: May 27, 2015 at 4:16:00 AM

Latest Report: May 27, 2015 at 3:55 AM


Visibility: 10 mi

Pressure: 30.18 "Hg

Humidity: 78%

Dew point: 57 °F

Location of WaterburyLocation

Historic Weather in Waterbury — Graph

°F

Waterbury temperature yesterday

Maximum temperature yesterday: 84 °F (at 2:50 PM)
Minimum temperature yesterday: 61 °F (at 3:55 AM)
Average temperature yesterday: 67 °F

Past Weeks' High & Low Weather Summary

 TemperatureHumidityPressure
High84 °F (May 26, 2:50 PM)100% (May 12, 5:50 AM)30.41 "Hg (May 12, 5:50 AM)
Low34 °F (May 12, 5:50 AM)21% (May 14, 2:55 PM)29.74 "Hg (May 12, 5:50 PM)
Average58 °F63%30.13 "Hg
* Reported May 12 3:15 AM — May 27 3:15 AM, Waterbury, Weather by CustomWeather, © 2015

Note: Actual official high and low records may vary slightly from our data, if they occured in-between our weather recording intervals... More about our weather records

Advertising

Waterbury weather history for previous 24 hours

 ConditionsComfort  
Time TempWeatherWind HumidityBarometerVisibility
3:15 AM
Wed, May 27
64 °FClear.3 mph78%30.19 "Hg10 mi
2:55 AM64 °FClear.6 mph78%30.19 "Hg10 mi
2:35 AM64 °FClear.5 mph78%30.19 "Hg10 mi
2:15 AM63 °FClear.5 mph83%30.18 "Hg10 mi
1:55 AM63 °FClear.No wind77%30.19 "Hg10 mi
1:35 AM63 °FClear.No wind77%30.19 "Hg10 mi
1:15 AM63 °FClear.No wind77%30.19 "Hg10 mi
12:55 AM64 °FClear.No wind78%30.19 "Hg10 mi
12:35 AM64 °FClear.No wind73%30.19 "Hg10 mi
11:55 PM
Tue, May 26
64 °FClear.No wind78%30.19 "Hg10 mi
11:35 PM64 °FClear.No wind78%30.19 "Hg10 mi
11:15 PM64 °FClear.5 mph78%30.19 "Hg10 mi
10:55 PM66 °FClear.5 mph73%30.19 "Hg10 mi
10:35 PM66 °FClear.5 mph73%30.19 "Hg10 mi
10:15 PM66 °FClear.7 mph73%30.19 "Hg10 mi
9:55 PM66 °FClear.9 mph73%30.19 "Hg10 mi
9:35 PM66 °FClear.9 mph73%30.17 "Hg10 mi
9:15 PM68 °FClear.8 mph69%30.17 "Hg10 mi
8:50 PM70 °FScattered clouds.7 mph69%30.17 "Hg10 mi
7:50 PM72 °FScattered clouds.10 mph69%30.17 "Hg10 mi
6:50 PM75 °FScattered clouds.9 mph65%30.18 "Hg10 mi
4:50 PM79 °FBroken clouds.9 mph58%30.18 "Hg10 mi
3:50 PM82 °FPartly sunny.10 mph55%30.20 "Hg10 mi
2:50 PM84 °FBroken clouds.7 mph51%30.20 "Hg10 mi
1:50 PM82 °FBroken clouds.9 mph55%30.20 "Hg10 mi
12:50 PM81 °FBroken clouds.8 mph58%30.21 "Hg10 mi
11:50 AM77 °FPassing clouds.6 mph61%30.21 "Hg10 mi
9:50 AM73 °FScattered clouds.6 mph61%30.21 "Hg10 mi
8:50 AM68 °FScattered clouds.6 mph64%30.22 "Hg10 mi
7:50 AM64 °FPassing clouds.5 mph68%30.24 "Hg10 mi
6:50 AM61 °FPassing clouds.5 mph72%30.23 "Hg10 mi
5:50 AM61 °FPassing clouds.6 mph68%30.22 "Hg10 mi
5:35 AM61 °FClear.3 mph68%30.21 "Hg10 mi
5:15 AM61 °FClear.5 mph68%30.21 "Hg10 mi
4:55 AM61 °FClear.6 mph72%30.21 "Hg10 mi
4:35 AM61 °FClear.5 mph72%30.21 "Hg10 mi
4:15 AM61 °FClear.6 mph72%30.21 "Hg10 mi
Weather by CustomWeather, © 2015

See weather overviewHow to use our weather pages